Theta_e
315 317 317 317 317 317 316 315 314 313 313 315 316 316 316 316 315 315 314 310 309 313 315 315 315 316 316 316 317 317 316 314 314 314 314 314 315 316 317 318 318 318 319 319 318 318 317 316 316 315 314 314 313 313 313 312 312 311 311 312 312 313 313 313 313 313 313 313 313 314 318 320 323 325 326 325 324 325 325 326 328 328 326 326 325 324
314 316 318 317 315 314 314 313 312 312 313 314 315 315 316 316 315 315 314 310 309 312 315 315 315 315 315 315 316 316 316 315 315 315 316 316 316 317 317 318 319 319 319 319 318 318 318 317 316 315 315 314 314 313 313 313 312 312 311 311 312 313 313 313 313 314 313 313 315 316 320 324 323 322 322 321 320 322 324 326 328 327 325 325 324 323
316 317 317 314 312 311 311 310 312 313 313 314 315 315 316 316 315 315 313 310 310 312 315 315 314 315 315 315 316 317 317 316 317 316 316 317 317 317 318 318 319 319 318 318 318 318 318 317 316 315 315 314 314 313 313 313 312 312 311 311 312 312 313 313 313 314 313 315 317 317 319 324 324 323 323 322 322 324 327 327 327 326 324 324 323 322
316 316 314 312 312 312 310 310 312 313 313 315 316 315 316 317 316 315 314 311 310 311 313 314 314 315 316 316 317 318 317 317 317 316 316 316 316 317 318 318 317 317 317 317 317 317 317 317 317 316 315 315 314 314 313 313 313 312 311 311 312 312 312 313 313 313 314 315 316 317 320 323 324 324 324 324 324 325 325 325 325 324 323 324 323 321
316 314 310 310 312 313 312 311 312 314 315 316 316 316 317 317 316 315 314 313 312 312 311 313 315 317 318 318 319 318 317 316 315 315 315 316 317 318 318 318 317 317 317 317 317 317 316 316 316 316 315 314 313 313 313 313 313 312 312 311 311 312 312 313 313 312 313 314 316 320 324 325 326 325 324 323 323 324 324 324 324 324 324 324 322 321
316 312 310 311 311 314 314 313 314 316 316 316 316 315 315 316 316 315 314 314 315 316 313 314 316 317 318 318 319 319 317 317 317 316 316 317 317 318 318 319 319 318 318 318 318 317 317 316 315 314 314 313 313 313 313 313 313 312 312 311 311 312 312 312 312 312 312 314 317 322 325 325 326 325 322 322 322 324 325 325 325 325 324 322 321 320
314 310 311 314 312 314 315 314 315 316 316 316 316 315 314 315 315 315 315 315 317 318 314 313 317 318 318 317 318 319 318 318 319 319 319 318 318 318 318 319 319 319 319 319 318 317 317 316 315 314 313 313 313 313 312 312 312 312 311 311 311 311 312 312 312 312 313 315 318 321 324 325 325 323 321 322 324 324 325 326 325 324 322 321 320 319
313 312 312 315 315 314 315 315 315 315 315 317 317 315 314 314 315 315 315 316 317 317 315 315 318 319 318 318 318 318 318 318 318 319 320 320 320 319 318 319 318 319 319 318 319 318 318 317 316 315 314 313 312 312 312 312 312 312 311 311 311 311 312 312 312 314 314 314 318 321 322 322 323 321 322 324 325 325 325 325 324 322 321 320 319 317
313 316 315 315 315 314 316 317 315 314 315 317 313 312 312 313 315 315 315 316 316 316 318 318 317 318 319 318 317 317 318 318 319 319 320 321 321 319 318 318 318 319 319 318 319 319 318 318 317 315 314 313 312 312 311 311 311 312 311 311 311 311 311 311 312 315 314 313 318 322 320 319 320 321 323 324 323 323 323 323 323 321 320 319 318 317
312 313 313 314 316 315 316 314 312 315 316 314 310 311 313 313 314 315 316 317 317 318 320 319 317 316 317 318 317 316 317 318 319 319 320 322 320 319 319 319 319 319 319 319 318 319 319 318 317 315 314 312 312 311 311 311 311 311 311 311 310 311 311 311 312 313 312 313 318 321 319 320 322 323 323 322 321 321 322 322 322 320 319 318 318 317
310 309 310 313 314 313 313 309 308 313 314 311 313 315 316 315 314 316 316 317 318 320 320 320 319 317 316 318 319 318 318 318 320 319 320 321 320 319 319 319 319 319 319 319 318 318 319 318 318 316 315 314 312 312 311 311 311 310 311 310 310 310 311 311 311 312 312 313 316 317 317 320 323 322 320 318 319 321 322 322 321 319 317 317 318 316
312 312 312 312 311 311 312 311 309 309 309 312 317 318 318 317 316 317 317 318 319 319 318 316 317 318 318 318 318 318 317 317 318 319 320 322 320 319 319 319 319 319 319 319 318 318 318 318 318 317 317 316 314 313 312 311 311 310 310 310 310 310 310 311 311 311 313 315 316 317 316 318 321 321 319 317 319 321 321 320 320 318 317 316 316 315
315 315 313 312 310 311 315 315 312 310 311 314 317 318 318 317 316 318 319 319 319 318 315 312 314 317 318 318 318 317 316 316 317 317 319 321 320 318 319 319 319 318 318 318 318 318 318 318 318 317 317 316 315 314 313 312 311 310 310 310 310 310 310 311 311 311 313 315 318 318 317 316 319 320 319 318 318 320 320 319 319 318 316 316 316 314
315 315 313 313 312 312 315 316 315 314 313 314 318 318 317 317 317 319 318 316 316 317 313 310 314 317 318 317 318 317 317 318 318 317 317 318 318 318 318 318 318 318 317 317 318 318 318 318 317 317 316 316 315 314 313 312 311 310 310 310 310 310 310 310 310 310 312 315 317 318 317 316 318 320 319 318 318 319 320 319 318 317 316 316 316 315
315 314 314 315 314 314 315 316 317 317 314 315 318 318 317 317 317 317 317 315 316 317 313 311 314 318 318 317 317 316 317 318 317 317 317 317 318 318 318 317 317 317 317 317 317 317 317 317 317 316 315 315 314 314 313 312 311 310 310 310 310 310 310 310 310 310 311 313 314 315 315 316 318 318 318 318 319 319 320 318 317 317 317 316 316 315
315 315 315 314 313 314 315 315 317 317 315 315 315 317 317 317 315 314 315 315 314 316 315 313 315 317 317 317 316 315 315 315 315 315 315 316 318 318 317 318 318 318 317 317 318 317 317 317 316 316 316 315 314 313 313 312 312 311 310 309 310 310 310 310 310 311 312 312 312 312 312 314 317 317 318 318 319 319 319 318 318 317 316 315 315 314
314 314 315 312 311 312 312 313 314 314 315 315 314 316 316 315 315 315 314 312 312 316 317 316 316 317 316 317 317 316 316 315 314 314 314 314 317 316 316 318 319 318 318 318 318 318 317 316 316 315 315 315 315 314 313 312 312 311 310 309 310 310 310 310 310 311 312 312 313 313 313 314 316 317 317 319 319 319 319 318 317 316 315 314 313 313
314 314 314 312 314 312 309 311 313 311 313 315 315 317 315 314 315 315 316 316 316 318 318 317 317 317 317 318 317 316 317 316 315 315 315 315 316 315 315 317 318 318 317 317 318 317 317 316 316 315 315 314 314 313 313 312 311 311 310 309 310 310 310 310 310 311 311 312 313 314 315 315 316 317 317 318 318 318 318 317 316 315 313 313 313 312
314 314 315 310 312 312 309 312 315 312 311 313 314 315 315 317 318 316 317 318 319 319 319 317 316 316 317 318 317 318 319 318 317 317 316 316 316 315 315 317 318 317 317 317 317 317 317 317 316 315 314 313 313 312 311 311 311 310 310 309 309 310 310 310 310 311 311 312 313 313 314 315 315 316 316 318 318 318 317 316 315 314 313 312 312 312
314 313 315 310 309 312 312 314 316 314 312 311 313 314 314 316 318 317 317 317 318 318 318 318 317 317 318 319 317 318 319 319 319 320 319 317 316 317 317 317 318 318 318 317 317 317 317 317 316 315 314 313 313 312 311 310 310 310 310 309 309 309 310 310 310 311 311 313 313 313 314 316 316 316 316 317 318 317 316 314 314 313 312 311 311 311
314 312 314 312 309 312 314 315 317 317 315 313 314 315 314 314 315 316 316 315 316 318 317 318 319 318 319 320 318 317 318 318 318 320 321 319 317 318 318 318 318 318 318 317 317 317 317 316 316 315 314 313 312 312 311 310 310 309 309 309 309 309 310 310 310 310 311 313 314 314 315 317 317 317 317 317 317 316 314 313 313 313 311 311 311 311
314 312 314 314 312 314 316 315 315 317 317 316 316 317 316 315 315 317 317 315 315 317 317 318 319 319 319 320 318 317 318 318 319 320 321 319 317 318 318 318 318 317 317 317 317 317 316 316 316 315 315 314 313 312 311 310 310 309 309 309 309 309 310 310 310 310 311 312 314 315 315 316 317 317 317 317 316 314 313 313 312 312 311 311 310 310
315 314 315 316 315 315 314 310 308 311 315 315 315 316 316 317 316 318 319 317 315 316 315 315 317 318 319 320 318 318 318 317 317 318 319 319 318 317 318 318 318 317 316 316 317 317 317 316 316 315 315 314 314 312 312 311 310 310 309 309 309 309 309 310 309 310 310 312 314 315 315 316 317 316 316 316 315 313 313 313 312 311 311 311 310 310
315 315 315 316 317 316 313 309 307 308 312 314 314 314 315 316 317 317 318 317 317 317 316 317 318 319 320 320 316 314 313 313 313 315 317 318 317 317 317 318 317 317 316 317 318 317 317 317 316 316 316 315 314 313 312 312 311 310 310 309 309 309 309 309 309 309 310 312 314 315 315 316 316 315 315 315 315 313 313 312 311 311 311 310 309 309
315 317 317 316 317 317 316 314 313 311 312 314 315 315 315 317 318 318 316 316 317 319 320 320 320 320 320 318 314 312 313 312 312 314 315 316 316 316 317 317 317 317 316 317 318 317 317 317 317 317 317 317 316 314 313 313 312 311 311 310 310 309 309 309 309 309 310 311 313 314 315 315 316 315 314 313 313 313 312 311 311 311 311 310 309 309
317 318 316 316 317 318 318 319 318 316 313 314 315 315 315 316 318 317 317 316 318 320 321 319 319 319 318 318 315 314 315 315 314 313 312 314 316 317 316 316 317 317 316 317 318 318 317 317 317 317 317 317 316 315 314 313 312 312 311 311 311 310 310 309 309 309 310 310 311 313 315 315 315 315 313 313 312 312 312 312 311 311 310 310 309 309
320 319 316 316 318 318 319 318 319 318 316 315 316 316 315 316 317 317 317 318 319 319 320 319 319 319 319 318 317 315 315 316 316 314 313 314 317 318 317 316 316 316 316 317 317 317 317 317 317 317 317 317 317 316 315 314 313 313 312 312 312 311 310 310 309 309 310 310 311 313 315 315 314 313 313 313 313 312 312 312 311 310 310 309 309 308
322 319 316 318 317 317 319 318 318 319 318 317 318 317 316 316 317 317 318 318 319 319 320 319 319 320 319 317 318 317 316 315 314 314 315 315 317 317 317 317 316 315 316 317 317 317 317 317 318 317 317 317 317 317 316 315 314 313 313 312 312 311 311 310 309 309 310 310 310 312 313 313 313 313 313 312 312 312 312 311 310 310 310 309 308 308
320 318 317 319 318 317 318 318 318 319 319 318 318 318 317 316 316 317 318 318 319 320 320 320 320 320 319 318 318 318 318 317 315 315 316 317 316 316 316 316 315 315 316 317 317 317 317 317 318 318 317 317 317 317 317 316 315 315 314 313 312 311 311 310 309 309 309 309 309 311 312 312 313 314 313 312 312 312 311 311 310 310 310 308 308 307
317 317 317 318 318 317 318 318 318 318 317 317 318 318 318 317 316 316 317 317 318 319 319 319 320 320 319 318 318 318 319 319 317 316 316 316 316 317 317 315 314 316 317 317 317 317 317 317 317 317 317 316 317 317 317 316 316 315 315 314 312 311 310 310 310 308 309 309 309 310 311 312 313 314 313 312 312 311 311 311 310 310 309 308 307 306
314 317 318 318 317 318 318 317 318 318 317 317 317 318 318 317 317 317 317 317 318 318 319 319 320 320 318 318 319 319 319 318 316 315 315 316 317 317 317 315 315 317 318 318 317 317 317 317 317 317 316 316 317 317 317 316 316 315 315 314 313 311 310 310 309 308 308 309 309 310 311 312 313 312 312 312 312 311 311 310 310 309 308 306 306 306
313 315 317 317 317 318 318 318 318 318 318 317 316 317 317 316 317 317 316 317 318 318 319 319 319 319 318 318 318 318 318 316 316 316 315 315 317 317 316 316 317 318 318 318 318 318 317 317 317 317 317 317 317 317 317 316 315 315 315 315 313 311 310 309 309 308 308 309 309 309 310 311 311 311 312 312 312 311 310 310 310 308 306 305 305 305
314 315 316 317 318 318 318 319 318 318 318 318 317 316 316 316 316 316 316 316 317 317 318 319 318 318 317 318 317 318 318 316 316 316 315 315 316 316 317 317 317 317 318 318 318 318 317 317 317 318 317 317 317 317 317 316 316 315 315 315 313 311 309 308 308 308 308 308 309 309 309 310 311 312 312 312 311 310 310 310 309 307 304 304 304 303
314 315 315 316 318 319 318 318 318 319 320 320 319 317 316 316 316 316 317 316 316 316 316 317 317 317 317 318 317 317 318 317 316 316 316 316 316 316 316 316 316 317 317 318 318 318 318 317 317 317 317 317 317 317 316 315 314 314 314 313 312 310 309 308 307 307 307 307 308 308 308 308 309 311 311 310 310 309 309 309 308 306 303 302 303 302
314 314 315 316 316 317 317 317 319 320 320 321 321 319 317 316 316 317 317 316 316 316 316 316 316 316 316 317 317 317 317 317 316 316 316 316 316 316 317 316 317 317 317 317 317 318 317 317 317 317 317 316 316 317 316 315 314 314 313 312 311 309 308 307 307 307 307 307 307 308 308 308 309 310 310 309 309 309 308 308 307 305 303 301 301 301
314 314 314 315 316 316 317 318 320 321 320 321 322 319 316 316 317 317 318 317 316 316 316 316 315 315 316 317 317 317 316 316 315 315 315 315 315 316 316 316 317 317 317 317 317 317 318 318 317 317 317 317 317 317 317 316 315 314 313 312 311 309 308 307 306 306 306 306 307 307 307 308 308 309 309 308 308 308 307 307 306 305 303 301 300 300
313 314 314 315 316 316 318 318 319 319 320 320 320 318 316 316 316 317 318 318 317 316 316 316 315 315 316 316 316 316 315 314 314 315 315 315 315 315 315 316 316 316 316 316 316 317 317 317 317 317 317 317 316 316 317 316 315 314 312 311 310 309 307 306 305 305 305 305 306 306 307 308 308 308 307 307 306 306 306 306 306 305 305 304 302 301
312 313 314 315 316 316 317 318 319 319 320 319 318 317 317 316 316 317 318 318 317 316 316 316 316 316 316 316 316 315 314 314 314 315 316 316 316 315 315 315 316 316 316 316 316 317 317 317 317 317 317 316 316 316 316 315 314 313 312 311 310 308 306 305 305 305 305 305 305 306 307 308 308 307 306 305 305 305 305 305 305 306 306 306 305 303
313 312 313 315 315 316 317 318 319 320 319 319 320 318 315 315 315 316 318 318 317 316 316 316 316 316 316 316 316 314 314 315 315 316 316 316 316 316 315 315 315 315 316 316 316 316 316 316 316 317 316 316 316 315 315 315 314 312 311 310 309 307 306 305 305 305 305 305 305 305 306 307 307 307 306 305 305 304 304 305 305 306 307 307 307 305
313 312 313 314 315 316 316 317 318 317 318 322 324 317 312 313 314 316 319 320 316 315 316 315 315 315 315 315 315 314 314 315 316 316 317 316 316 316 315 315 315 315 315 316 316 316 315 315 316 316 316 316 315 315 315 314 313 311 310 309 307 306 306 306 305 305 304 304 304 304 304 305 306 306 306 306 305 305 305 305 306 307 307 306 305 304
313 313 313 314 315 315 316 317 317 316 318 323 321 312 309 313 316 318 320 320 315 316 317 315 315 315 315 315 315 314 314 315 316 317 317 316 314 314 315 315 315 315 315 315 316 315 315 314 315 315 315 315 315 314 314 313 312 310 309 307 306 306 306 306 305 304 303 303 303 303 303 304 305 305 306 306 306 306 306 306 306 306 305 304 303 302
312 313 313 314 315 315 315 317 316 316 318 319 315 309 310 315 318 318 318 315 315 316 316 315 315 315 315 316 315 315 316 315 316 316 316 315 314 313 313 314 314 315 315 315 315 315 314 314 315 315 314 314 313 313 312 312 310 309 308 307 307 306 305 305 304 303 303 302 302 302 302 303 303 304 305 305 306 305 305 305 304 303 302 301 300 300
314 314 314 314 314 315 315 316 317 317 317 315 312 311 312 315 317 316 314 314 314 314 313 314 314 315 315 315 315 315 315 315 315 314 314 314 313 312 313 313 313 314 314 315 315 315 314 314 314 314 313 313 312 311 311 310 309 308 307 307 306 305 304 303 303 303 302 302 302 302 302 302 302 303 303 304 304 303 303 302 301 300 300 299 299 298
313 314 314 314 314 314 315 315 316 316 315 313 313 314 313 314 314 313 312 312 311 311 311 311 311 312 312 312 313 313 313 313 313 313 313 313 313 313 312 312 312 313 314 314 314 315 314 313 313 312 312 311 310 310 309 308 307 307 307 306 305 304 303 303 303 302 302 301 301 301 301 301 301 301 301 301 301 300 300 299 299 299 298 298 297 296
314 313 313 313 314 314 315 315 313 311 310 311 313 313 313 313 313 312 311 310 310 310 310 309 310 310 309 309 310 311 311 311 312 312 312 313 312 312 312 311 312 312 313 313 314 313 313 312 312 311 310 309 308 308 307 307 307 307 306 305 304 304 304 303 302 302 301 300 300 300 300 300 300 300 299 299 299 299 299 298 298 298 297 297 296 296
312 311 310 313 314 314 313 312 310 308 308 309 311 313 313 313 313 312 311 310 311 311 311 310 310 309 308 307 308 308 309 310 309 310 311 311 311 311 311 310 311 312 312 313 313 312 311 311 310 309 309 308 307 307 306 306 306 306 306 305 305 304 304 303 302 301 301 301 300 300 300 300 299 299 299 298 298 298 298 298 297 297 297 296 296 296
310 309 310 312 314 314 313 313 312 310 310 310 310 311 312 312 312 312 311 310 311 311 310 310 310 309 308 308 307 308 308 308 308 309 309 309 310 310 310 310 310 311 312 312 311 310 310 309 308 307 307 307 307 306 306 306 306 305 305 305 305 304 303 302 302 302 302 301 301 300 300 300 300 299 299 298 298 297 297 297 297 297 296 296 296 296
309 308 309 311 312 312 313 313 312 310 309 309 309 310 311 312 312 312 311 310 309 309 309 310 310 309 309 309 309 309 309 309 308 308 308 309 309 309 309 309 310 310 311 310 309 308 307 307 307 306 306 307 307 306 306 306 306 305 304 304 304 303 303 302 302 302 302 301 301 301 300 300 299 299 298 298 297 297 297 296 296 296 296 295 295 294
306 307 309 310 311 311 312 311 310 308 307 307 308 309 310 310 311 311 310 310 309 309 310 310 310 310 309 309 309 310 310 310 309 309 308 309 309 309 309 309 309 309 309 308 307 306 306 306 306 306 306 307 307 307 306 306 306 305 304 303 303 303 303 302 302 301 301 301 300 300 299 298 298 297 297 297 296 296 296 295 295 295 294 294 293 292
304 306 308 309 310 311 311 310 310 310 310 309 309 309 310 310 310 310 310 310 310 311 311 311 311 311 310 310 309 310 310 310 309 309 309 309 309 309 308 308 308 308 307 306 306 306 306 306 307 307 307 307 307 306 306 305 305 304 303 303 303 302 302 302 301 300 299 299 298 297 297 296 296 296 296 295 295 294 294 294 293 293 292 292 291 290
305 306 307 308 308 308 308 307 306 307 309 310 310 309 310 309 309 310 310 310 311 311 311 310 310 310 310 310 310 310 310 310 309 309 309 309 309 309 309 308 307 307 306 306 307 307 307 307 307 307 307 306 305 305 304 304 304 303 302 302 301 301 300 300 299 298 297 296 296 295 295 295 295 294 294 293 293 293 292 292 292 291 290 290 290 290
Wind_Speed
3 3 4 6 4 5 8 5 2 5 5 3 3 1 2 3 7 5 1 3 1 4 9 11 12 15 17 15 17 19 17 19 22 21 25 32 35 36 37 38 38 38 36 33 33 32 29 29 28 29 30 31 32 32 30 29 29 29 29 30 30 29 27 26 26 25 25 23 22 22 24 26 26 25 24 24 23 21 21 21 21 19 18 17 17 16
3 4 8 5 2 4 4 4 5 5 4 2 2 2 2 4 8 6 1 1 2 3 8 9 10 14 15 14 17 19 16 19 24 24 26 29 30 34 37 40 41 40 38 36 35 34 32 32 31 31 33 34 34 33 32 31 30 30 30 31 30 29 28 27 27 25 24 23 21 21 24 27 28 25 24 23 22 23 26 26 24 20 17 17 16 15
3 7 6 4 8 8 5 5 5 3 3 2 2 2 3 3 5 7 1 1 2 4 5 7 9 12 14 15 18 21 21 24 28 28 28 27 25 30 37 41 41 40 40 38 36 34 32 32 33 34 35 35 35 34 33 32 31 31 31 31 30 30 28 27 27 25 24 23 22 21 23 27 29 26 24 22 22 24 27 27 24 21 19 18 17 15
4 5 2 6 9 7 5 5 6 4 3 4 3 3 4 1 2 5 1 2 3 3 4 7 9 11 13 15 17 23 25 25 27 26 28 31 32 38 44 42 39 38 39 38 36 34 31 31 32 34 35 36 36 37 36 34 32 32 32 32 31 31 29 28 27 26 24 24 23 22 22 25 28 26 24 25 25 26 26 25 24 23 21 20 18 16
3 1 3 6 7 6 6 6 7 5 4 5 6 6 6 4 5 6 3 4 4 2 2 7 9 8 8 10 11 12 13 17 22 20 23 33 37 40 42 41 38 38 38 36 34 33 30 29 30 32 34 35 36 38 37 35 34 33 33 33 32 31 30 29 28 26 25 25 24 24 25 26 28 28 27 28 28 27 27 26 24 23 24 22 20 18
3 4 6 6 4 5 6 5 7 6 4 4 6 9 10 9 7 5 2 5 5 2 1 4 7 4 3 5 7 3 4 10 12 10 17 28 31 31 33 34 34 34 32 31 30 30 28 27 27 29 31 33 35 36 36 36 36 34 33 34 32 31 30 30 29 27 26 26 26 27 29 31 31 30 29 29 27 26 27 26 24 25 25 22 20 19
1 4 5 5 6 6 5 4 6 7 4 2 2 6 10 8 5 5 2 2 4 3 0 1 6 6 4 8 9 6 9 14 10 8 15 24 27 27 29 31 32 30 28 26 25 24 24 24 24 25 27 30 32 34 35 36 37 35 34 34 32 31 31 31 30 28 27 27 26 27 31 33 32 30 28 27 26 27 28 27 25 25 24 22 21 19
3 4 3 5 6 5 5 4 5 8 5 1 1 2 4 5 5 5 3 4 4 4 2 3 2 8 8 6 7 8 11 15 13 12 15 21 24 24 25 26 24 21 20 18 18 18 19 19 20 21 23 24 28 31 34 36 36 35 35 34 32 31 31 31 30 29 28 28 28 29 31 32 31 28 26 26 28 29 28 27 27 26 25 24 22 19
2 6 7 7 5 4 5 1 5 11 5 1 2 2 3 3 3 3 2 3 2 4 5 4 5 7 7 2 2 4 8 11 13 13 15 18 18 18 19 16 12 12 12 12 13 13 13 14 15 16 18 21 24 28 32 34 34 34 34 33 32 32 32 31 31 31 29 28 29 31 31 31 31 30 27 26 27 27 26 26 26 27 26 26 23 18
1 2 5 7 5 5 3 3 2 8 3 4 6 5 5 4 4 2 1 1 0 5 6 7 9 7 7 3 4 2 5 9 11 11 13 14 15 16 15 10 9 10 10 10 10 10 10 10 11 12 15 18 22 25 28 31 32 33 34 33 32 33 32 32 32 32 31 29 30 32 32 31 32 31 29 27 27 27 27 26 27 28 29 27 24 19
2 1 1 3 2 3 6 5 3 1 4 9 8 5 5 3 2 1 0 1 2 7 5 8 14 11 7 2 6 4 4 7 9 9 10 11 13 15 11 10 10 10 10 10 9 8 8 8 9 11 13 17 20 23 27 30 31 32 33 33 33 33 33 32 32 32 31 30 31 32 33 33 32 30 27 28 28 29 29 28 29 31 29 27 23 19
1 1 1 2 4 7 7 5 5 4 4 5 3 3 3 1 1 1 2 1 4 7 2 2 6 10 9 4 4 3 4 7 8 8 7 7 11 13 9 10 12 12 12 12 10 9 8 9 10 11 13 16 19 23 27 29 30 32 33 33 33 34 33 33 33 32 32 32 32 33 33 34 33 29 28 28 29 29 29 29 30 31 29 26 23 21
2 3 1 2 5 7 6 5 5 3 1 2 3 5 4 3 2 3 3 2 5 5 0 1 1 6 10 9 7 7 9 11 10 10 11 10 16 19 13 11 12 13 13 12 11 12 12 13 15 16 17 18 20 23 26 29 30 32 33 33 33 34 34 33 33 33 34 34 34 35 35 35 33 31 30 29 28 29 28 28 29 31 31 27 23 22
3 1 3 4 3 9 10 6 5 3 5 6 6 7 6 4 3 4 3 1 5 3 1 2 2 5 7 8 13 17 18 16 13 17 21 19 23 27 23 20 19 19 18 16 17 18 20 21 21 20 20 20 22 23 26 28 30 31 33 33 34 34 34 33 33 34 35 36 37 38 37 35 33 31 31 30 29 29 29 27 27 29 31 28 24 22
6 3 7 8 5 11 13 6 3 5 6 7 4 3 5 5 4 4 3 3 5 3 1 2 2 5 3 1 5 11 13 15 17 23 27 27 30 33 33 31 31 31 28 25 25 25 25 24 23 21 21 21 22 23 26 28 29 31 33 34 34 36 35 33 33 34 35 37 38 38 38 37 34 31 31 31 30 30 30 28 27 29 30 28 25 24
5 4 4 3 3 12 11 3 4 6 4 4 1 1 4 3 3 2 2 1 2 4 2 4 3 5 3 3 4 5 7 10 15 21 24 29 36 37 36 37 37 37 34 29 27 25 24 22 22 21 21 20 21 23 26 27 28 30 32 34 35 36 35 33 33 34 34 35 36 36 37 37 34 32 32 31 30 31 30 28 29 30 27 25 25 24
3 2 2 2 1 5 3 1 3 1 2 4 3 4 2 1 1 3 1 2 1 5 4 3 6 7 5 7 9 9 10 9 9 13 16 26 35 31 31 36 37 35 32 28 26 24 22 22 21 21 21 21 21 23 25 27 27 28 30 33 35 36 36 35 34 34 34 35 34 33 34 35 35 34 33 30 29 30 30 30 30 28 25 24 25 25
3 1 1 1 1 1 2 4 4 3 2 4 4 5 3 2 1 3 3 1 2 6 4 3 7 8 5 6 3 6 8 11 11 11 13 22 27 24 28 35 34 31 30 27 25 22 21 20 20 20 20 21 21 23 25 25 25 27 29 32 34 36 37 35 34 34 34 34 34 34 34 34 34 33 30 29 28 30 32 32 30 26 24 25 25 25
3 3 0 1 1 2 3 3 3 1 1 1 1 3 2 2 3 4 4 4 3 5 4 3 5 8 9 7 2 6 8 10 10 10 12 16 17 21 31 35 30 27 26 23 20 18 18 17 16 17 18 20 21 22 24 24 25 26 28 30 33 35 36 34 33 33 33 34 35 35 34 33 32 31 29 29 30 32 33 31 28 25 25 26 25 27
3 5 2 1 2 2 3 5 6 5 1 2 0 2 1 2 2 3 3 2 4 4 4 3 4 8 9 6 5 9 11 10 10 9 8 10 15 25 31 28 21 18 17 16 15 15 14 13 13 14 15 17 19 21 23 24 25 26 27 30 33 35 36 35 33 32 33 35 36 35 35 34 34 33 31 30 32 35 34 30 28 26 25 26 27 29
3 4 3 2 1 2 5 7 8 10 8 5 6 7 5 2 0 2 2 0 2 3 3 3 7 10 4 5 6 10 11 12 13 9 5 8 18 23 21 16 13 13 13 13 13 11 11 11 11 13 14 16 17 19 22 24 25 26 27 30 33 35 36 35 33 33 33 35 36 36 37 36 36 36 33 32 35 37 33 28 27 26 24 25 28 32
4 4 4 4 3 6 4 1 3 6 6 6 7 9 10 8 5 3 4 2 1 3 3 2 7 11 2 4 5 8 8 10 12 9 6 12 21 19 14 13 12 13 13 13 11 10 9 9 10 12 13 15 17 19 22 24 25 27 29 30 32 35 36 35 34 33 33 35 37 37 36 35 35 36 35 35 38 37 32 27 26 26 24 26 30 33
5 2 4 4 4 4 0 3 2 3 1 1 2 3 5 6 7 7 6 4 3 2 1 1 6 11 3 4 3 4 4 8 12 11 9 15 21 18 15 16 14 15 15 13 11 10 9 9 9 10 11 13 16 18 20 23 25 27 29 30 31 34 36 35 34 33 33 34 36 36 35 34 35 36 36 37 40 38 32 27 27 27 25 27 32 35
4 1 5 4 1 1 2 2 1 2 1 2 2 2 5 9 10 6 2 3 5 4 4 3 7 11 2 3 1 1 1 4 10 14 15 17 20 18 18 18 17 18 18 15 12 11 11 11 10 9 8 9 13 16 19 22 24 26 28 29 30 33 35 35 35 34 34 35 36 36 36 36 35 36 36 37 40 38 32 28 28 28 26 28 33 36
8 3 4 5 3 2 2 3 3 2 2 5 5 6 9 12 8 2 1 2 4 9 12 8 9 12 1 3 2 2 2 3 6 14 18 19 20 20 21 22 21 21 20 18 15 14 13 13 11 9 7 8 10 13 16 20 23 25 28 29 31 32 34 35 36 35 35 36 37 37 37 39 39 38 37 38 38 37 34 31 31 29 27 30 35 38
10 4 6 7 6 7 7 6 4 4 5 4 5 7 11 13 11 5 3 5 6 12 14 9 11 14 4 3 4 4 1 3 8 12 16 20 22 23 24 23 23 24 23 21 18 16 16 15 12 9 8 9 10 11 14 17 20 24 26 28 30 31 33 35 36 37 37 38 39 39 38 39 39 38 38 38 39 39 37 34 32 30 28 31 37 39
4 2 9 11 11 11 11 7 2 6 7 7 9 11 12 14 15 9 5 7 11 12 11 11 15 20 17 10 8 5 3 5 8 10 12 20 26 28 27 25 24 25 25 23 20 20 19 17 13 11 11 10 11 11 13 15 17 20 23 26 29 31 33 35 36 38 39 39 40 40 40 40 40 39 38 39 40 41 37 33 32 31 30 32 38 40
2 2 9 10 13 14 15 14 7 9 9 12 13 14 14 15 16 14 11 15 15 11 12 15 17 19 23 21 14 9 6 7 7 8 13 22 29 30 28 26 26 26 26 25 25 25 24 20 17 16 15 12 11 13 14 15 16 18 21 24 27 31 34 36 37 39 39 39 41 42 43 42 41 40 40 38 38 38 36 33 34 33 31 33 38 41
2 4 8 9 14 17 17 18 14 11 12 13 14 16 17 18 19 18 19 22 19 14 13 15 18 19 21 24 21 14 11 11 13 17 20 23 27 28 27 27 29 28 27 29 31 30 28 25 22 21 18 15 14 15 16 18 18 19 21 24 27 31 34 36 38 40 40 41 42 44 44 42 40 40 39 38 37 37 37 36 35 34 32 34 39 41
3 5 10 11 13 17 19 20 19 16 15 16 16 14 14 18 21 23 23 24 23 19 16 18 23 24 21 22 19 14 17 18 19 23 25 24 27 31 31 31 30 28 29 33 35 34 32 30 27 25 21 18 17 18 20 21 21 20 21 24 28 30 33 36 38 39 41 42 43 44 43 42 41 40 39 39 39 38 37 36 34 33 33 35 39 42
6 7 10 10 9 13 18 20 21 18 15 16 15 9 10 17 21 23 20 17 18 20 20 22 24 21 19 18 17 19 22 17 14 18 24 29 33 35 35 34 32 32 33 36 38 37 35 33 31 28 26 23 21 20 22 23 23 22 23 25 29 31 33 35 37 39 41 42 43 44 44 43 43 42 43 43 41 38 37 35 33 33 34 36 40 42
6 7 6 6 7 11 15 18 20 18 13 12 12 11 14 17 17 16 13 14 17 20 20 20 17 16 17 13 12 19 17 10 11 16 22 32 38 38 40 40 38 38 38 38 40 41 39 37 34 33 32 28 23 22 23 24 24 24 25 26 29 30 32 34 36 39 41 42 42 43 44 45 45 44 44 43 40 38 37 35 34 34 35 37 39 42
5 6 5 6 7 9 15 17 16 13 10 9 12 20 24 21 14 11 13 18 21 17 15 15 12 14 19 16 15 16 7 5 14 21 25 34 39 39 43 45 44 45 44 43 43 44 44 42 39 38 36 30 26 25 25 25 25 25 25 27 28 29 31 33 36 38 40 41 41 42 43 45 45 43 41 39 38 38 38 36 34 33 34 36 38 41
7 8 7 6 5 8 14 14 9 9 11 11 13 20 25 22 18 18 20 24 22 15 12 14 13 16 21 19 17 16 10 13 25 33 36 37 36 35 38 40 42 46 48 48 47 46 47 46 42 40 38 32 28 28 27 26 25 24 24 26 28 28 30 32 35 37 39 41 41 41 42 43 43 42 39 38 39 39 38 36 33 32 33 35 37 39
8 9 7 6 5 6 9 9 9 10 11 10 10 15 20 20 21 24 24 23 22 19 18 19 20 23 23 20 20 22 25 29 33 38 44 41 36 34 34 36 42 47 50 52 50 49 49 48 45 42 39 36 33 32 30 28 26 26 26 27 28 29 30 32 34 37 39 41 41 40 40 41 41 40 39 39 39 39 38 36 33 31 31 33 34 36
9 9 6 5 5 4 4 8 9 8 5 4 6 10 13 12 13 16 17 19 21 22 21 20 23 26 24 25 30 32 35 33 30 39 51 45 37 37 38 42 49 49 50 51 51 51 51 49 46 43 40 39 37 34 32 30 28 28 28 29 30 31 31 32 34 37 39 40 41 40 39 39 40 40 39 39 39 38 36 36 34 31 29 30 31 33
9 8 5 6 7 6 7 9 9 8 7 6 10 12 10 9 10 11 12 16 18 20 21 19 22 26 24 25 33 34 30 22 19 37 54 45 36 45 50 53 56 52 48 50 49 50 50 45 41 39 38 38 36 34 33 31 30 30 30 30 32 32 32 33 34 36 38 40 40 40 39 38 39 39 39 38 38 37 35 35 33 30 28 28 29 31
11 10 8 8 7 6 8 8 9 11 10 11 17 16 9 9 12 9 8 12 13 18 23 20 21 25 19 21 30 25 16 12 10 26 46 40 35 46 51 52 55 54 52 52 50 48 46 40 35 35 35 36 35 34 33 31 31 32 31 32 33 33 33 33 34 35 37 38 38 38 37 38 38 38 37 35 35 35 35 35 33 29 27 26 27 28
14 11 10 9 6 6 8 8 8 10 8 9 14 13 8 12 11 6 3 11 14 21 26 20 18 19 15 20 26 14 7 9 9 20 42 44 36 39 42 43 47 48 49 52 51 49 45 38 34 35 35 36 36 35 34 33 33 33 33 33 33 33 33 33 33 34 34 35 36 36 36 37 37 37 35 32 30 31 32 33 31 28 26 25 26 27
13 8 9 10 8 9 9 7 6 6 5 6 9 6 7 16 15 8 5 12 10 15 24 22 18 19 22 28 25 11 9 14 14 26 47 46 33 32 34 34 35 36 38 42 44 47 45 38 35 36 37 38 37 35 35 34 33 33 33 32 32 32 31 31 30 31 31 33 34 34 34 35 36 36 35 32 29 28 28 30 29 28 27 26 26 26
7 6 8 11 11 11 10 8 7 5 5 7 7 5 12 14 10 7 11 10 5 9 21 25 23 26 31 31 21 13 20 31 35 43 50 40 27 26 26 25 26 27 29 31 34 39 41 37 35 36 37 37 36 35 34 34 33 32 31 31 30 30 28 27 27 28 30 31 31 31 32 33 34 35 34 33 31 29 29 29 29 28 26 25 25 25
3 3 4 7 9 8 8 9 8 6 7 8 5 8 14 9 5 10 11 8 8 13 18 20 23 27 31 31 27 26 34 43 46 49 48 41 34 28 22 21 23 23 24 26 28 31 35 36 35 36 35 34 34 33 32 31 31 30 29 29 28 26 24 24 25 26 27 27 28 29 30 30 31 32 32 32 31 30 29 28 27 25 24 23 24 24
6 5 4 6 7 6 5 7 7 7 8 12 9 7 7 9 10 7 6 8 11 13 15 15 19 24 26 28 31 33 35 38 39 39 42 43 40 35 29 26 25 24 24 24 25 28 32 35 36 36 34 33 31 31 30 29 28 28 28 26 23 22 22 23 24 25 26 27 28 28 29 28 28 28 29 29 29 28 27 26 25 24 24 25 25 25
6 6 6 5 6 6 6 7 6 3 4 16 16 6 10 20 18 7 2 5 7 8 11 14 16 18 19 21 26 28 28 30 31 32 35 37 38 38 37 32 27 26 26 25 26 29 32 35 35 33 32 31 30 30 28 27 27 26 25 23 22 22 23 24 25 26 27 28 27 27 27 26 26 26 26 26 26 26 26 26 26 26 26 26 26 26
9 9 7 6 6 6 6 6 4 1 4 17 22 15 13 22 25 18 11 10 10 10 11 14 16 15 13 16 21 24 25 26 26 27 29 31 33 34 32 30 29 28 27 27 29 30 32 33 33 31 31 31 30 29 28 27 26 25 24 23 24 26 27 27 28 28 28 27 27 26 26 26 26 26 26 26 27 27 28 28 28 28 27 27 26 25
6 4 3 3 3 3 6 7 4 3 6 14 22 23 20 21 24 24 21 21 22 22 20 17 17 15 13 14 15 16 18 19 19 21 22 24 27 28 28 28 27 27 27 28 29 30 30 30 30 31 32 32 31 29 28 27 25 23 23 24 26 27 28 29 29 29 28 28 28 28 28 28 28 28 28 28 28 28 28 27 27 26 25 25 24 23
6 7 5 3 4 4 6 9 11 16 20 21 22 23 26 26 26 25 23 22 23 26 24 22 21 17 13 13 13 13 15 16 17 18 19 20 23 25 25 25 25 26 27 27 27 28 28 29 31 32 33 33 32 30 28 26 24 22 23 25 27 28 29 29 29 28 29 29 29 30 30 29 29 29 29 29 28 27 26 25 24 23 23 22 22 21
5 8 8 5 7 8 6 5 9 16 21 24 25 25 27 29 28 28 26 22 20 23 23 22 22 20 16 14 14 15 16 17 17 18 18 19 22 22 23 24 25 26 26 26 26 26 26 29 31 32 31 30 29 28 26 25 24 25 26 27 28 29 28 28 27 28 28 29 29 29 28 28 28 28 27 27 26 25 25 24 23 22 21 19 17 16
6 6 5 5 8 11 9 7 10 10 8 13 23 28 28 27 25 24 25 25 25 26 25 23 23 24 25 23 20 19 20 20 19 18 17 17 19 20 22 23 24 24 24 24 23 24 25 27 27 26 25 24 25 25 25 26 27 28 29 29 28 28 27 27 27 27 27 27 27 26 26 26 25 25 24 24 24 23 22 20 19 18 17 16 15 15
6 5 4 4 7 8 6 8 11 9 5 9 18 23 23 23 22 24 26 28 28 28 27 26 27 29 30 30 26 23 22 21 19 18 16 14 14 16 19 20 21 21 20 20 20 22 23 22 22 22 22 22 23 24 26 27 28 28 28 27 26 26 26 26 26 26 25 25 25 25 25 25 25 24 23 23 22 22 22 21 19 18 18 18 18 18
8 7 5 5 6 7 11 19 20 13 8 13 19 21 22 22 21 22 25 27 27 26 25 26 29 31 32 31 27 23 21 20 18 18 18 15 13 13 15 17 17 17 17 19 20 20 21 21 21 21 21 22 24 25 26 26 26 26 26 25 25 24 25 25 25 25 25 25 25 25 25 25 25 25 24 23 23 22 22 22 22 21 21 20 20 19
Wind_Direction
158 177 198 218 216 193 191 189 119 77 81 101 108 213 245 267 269 263 90 86 148 255 252 244 252 262 267 272 274 275 275 270 267 264 264 267 269 269 270 270 269 267 265 264 262 260 256 251 249 247 244 242 241 240 239 239 238 236 231 229 229 231 231 231 232 230 227 222 215 207 201 200 203 207 215 225 228 225 222 216 208 201 195 199 206 205
156 211 227 222 87 96 152 132 108 106 97 109 181 239 247 238 265 275 336 86 141 231 262 259 261 264 266 270 271 272 269 262 261 258 258 262 265 268 269 269 269 269 268 266 264 261 258 253 249 246 244 242 241 240 238 237 236 235 232 231 230 232 231 231 230 227 225 222 215 208 203 203 204 207 215 222 223 220 215 210 208 211 214 216 213 206
190 228 232 129 95 89 100 129 148 158 139 168 195 236 254 236 274 276 252 80 167 222 269 284 279 274 270 269 264 260 255 255 255 253 257 262 264 265 266 268 269 270 270 269 266 263 260 257 252 247 244 243 242 241 239 237 236 234 233 232 232 232 231 230 227 223 220 217 212 209 206 207 208 207 209 211 212 211 206 206 214 221 226 223 214 207
190 237 257 122 136 123 98 139 154 151 186 206 202 221 243 199 276 263 236 82 181 220 299 300 288 278 267 262 255 251 250 256 259 257 259 261 261 263 265 266 266 268 270 271 271 269 264 258 254 250 246 244 241 240 239 237 236 235 233 232 231 231 230 228 225 220 216 212 208 206 208 211 211 207 208 209 211 213 213 214 219 225 227 220 212 209
196 63 77 133 163 153 124 151 168 180 214 214 209 223 240 231 233 244 333 332 239 190 321 298 285 266 250 251 252 252 250 258 262 259 260 260 260 263 265 266 266 267 268 270 272 273 270 263 257 254 250 245 240 239 240 238 237 236 233 232 231 230 229 226 223 218 212 208 203 202 206 209 207 207 212 212 212 217 220 220 220 220 216 209 207 207
227 107 119 124 132 152 146 166 189 199 225 226 209 219 236 245 247 245 334 330 279 223 131 324 305 272 201 239 254 264 263 261 254 243 256 263 264 263 265 267 269 270 272 273 272 272 271 267 260 254 250 246 243 241 242 239 238 237 234 233 231 228 227 225 223 219 211 205 203 202 200 199 201 208 214 214 214 217 216 216 214 209 204 203 205 203
209 118 123 128 134 148 165 201 199 192 219 258 197 212 232 242 252 249 239 258 275 284 208 356 313 290 246 232 240 247 262 266 261 248 258 265 266 263 265 270 272 274 277 276 274 271 268 264 259 254 250 249 246 244 242 239 237 235 234 234 230 227 226 224 222 219 212 204 204 205 203 203 208 215 216 215 216 215 212 210 207 204 203 204 203 199
149 147 135 132 139 148 180 213 186 180 201 247 106 161 200 205 219 227 217 227 272 326 287 174 236 281 271 233 230 240 254 266 271 269 266 264 264 266 270 274 273 273 273 272 271 268 265 261 257 255 252 250 247 244 241 240 238 236 235 234 230 225 224 222 220 217 213 208 204 207 210 213 218 221 220 217 212 209 206 205 205 206 206 202 198 198
140 175 177 161 160 180 191 202 159 174 197 24 106 116 133 155 177 169 194 232 291 324 278 170 155 267 273 183 158 246 244 257 263 262 264 263 264 270 274 275 270 264 265 268 271 269 264 258 253 252 251 248 246 244 243 243 242 240 237 234 229 225 222 220 218 215 213 210 208 209 212 215 217 216 214 211 208 207 207 209 209 206 202 199 198 200
39 199 191 172 180 195 153 36 158 188 191 127 132 104 93 92 84 106 221 230 217 279 259 171 168 248 278 165 150 208 225 240 251 253 259 265 271 275 273 262 253 258 264 269 271 267 260 249 240 237 239 241 241 242 243 243 243 240 236 232 227 223 221 219 216 213 211 208 209 211 213 214 211 208 209 210 213 214 212 213 212 204 199 198 200 204
32 65 173 197 195 137 108 67 21 39 122 136 140 112 100 97 82 100 349 43 267 267 253 173 184 222 268 184 170 189 203 222 235 246 255 263 272 275 264 240 239 249 260 265 263 255 245 236 227 225 229 233 236 238 238 240 241 238 236 231 226 223 220 217 215 213 210 208 209 211 212 211 208 208 211 214 215 214 212 210 207 202 197 197 201 205
38 121 157 194 149 117 108 87 51 57 126 149 152 140 137 155 142 181 184 144 250 257 275 145 199 228 245 227 190 210 238 236 234 243 254 265 271 269 250 232 237 240 247 252 252 245 238 239 241 239 238 236 236 236 236 238 237 236 234 230 225 223 219 215 214 212 210 209 211 213 212 211 213 216 217 216 215 214 210 207 203 199 195 196 200 202
187 196 138 132 158 161 148 108 84 77 184 217 168 162 194 225 211 237 211 178 245 252 13 57 237 247 249 251 255 255 249 241 233 238 248 258 266 266 257 241 241 242 244 244 245 248 250 256 259 256 252 247 243 241 239 239 236 233 232 228 224 223 220 215 213 211 209 210 211 213 213 214 217 218 216 217 218 216 212 207 204 202 200 200 201 204
202 227 148 155 183 198 192 166 160 176 187 196 182 174 197 208 217 237 211 230 266 265 84 140 195 250 264 260 242 238 238 233 229 240 250 257 263 266 265 258 255 254 252 250 251 257 262 265 266 262 256 252 249 245 242 240 237 233 230 227 223 222 222 218 214 211 209 209 211 213 214 215 217 214 213 217 218 217 215 210 209 211 210 210 214 218
215 253 179 173 164 183 198 205 162 137 167 195 189 183 210 199 204 232 221 243 274 304 155 165 201 234 244 323 233 241 252 244 238 244 252 258 259 263 267 267 267 264 262 263 264 266 266 265 262 259 255 251 248 245 243 242 238 234 231 227 222 222 223 220 216 212 210 211 213 213 213 214 215 214 214 218 220 219 215 211 212 216 215 218 226 230
227 272 170 150 135 167 184 203 106 111 165 195 113 207 237 211 193 250 288 263 318 320 254 190 235 246 249 298 259 256 273 253 244 246 250 255 255 258 265 267 268 269 270 272 272 271 269 264 260 257 254 251 246 243 242 241 238 235 231 227 223 222 223 221 218 215 212 212 213 212 211 211 212 213 214 218 220 217 212 209 211 212 216 224 231 234
209 290 78 59 74 164 181 124 121 147 184 158 163 199 223 353 209 222 247 75 96 274 262 195 250 275 290 272 232 216 240 241 239 244 243 248 251 254 259 260 264 270 273 274 274 274 272 264 257 255 252 249 244 242 242 241 239 236 232 228 223 221 223 222 219 217 213 211 210 210 210 209 209 210 212 216 218 213 207 205 206 211 222 231 233 231
196 232 55 94 176 170 28 77 84 16 74 132 186 188 140 29 312 233 243 216 185 256 267 207 255 274 271 266 208 167 226 240 237 236 239 247 250 252 255 256 260 266 271 275 276 274 270 261 251 247 247 247 244 243 244 244 241 236 233 229 224 222 224 222 219 218 215 211 208 209 208 207 208 209 212 215 214 210 205 202 205 216 228 231 230 224
187 222 218 49 251 114 90 140 135 64 40 43 222 169 151 226 208 182 219 241 222 246 263 234 263 266 236 233 206 161 199 229 234 229 233 243 244 245 251 256 261 265 269 273 272 268 264 260 253 247 246 246 245 243 243 243 241 236 232 228 224 223 225 224 221 218 216 211 208 209 208 207 209 211 214 214 209 204 202 204 211 223 229 228 225 217
169 232 219 133 293 85 134 208 193 164 135 1 291 178 245 285 224 177 174 235 232 235 271 282 282 265 234 204 197 194 192 204 216 218 224 237 237 240 250 257 259 257 257 258 258 259 258 254 248 245 245 246 246 245 242 240 238 235 231 226 223 223 224 224 221 218 216 212 208 208 207 207 209 213 217 216 206 201 201 208 219 227 230 228 222 214
135 233 223 124 293 208 187 204 196 181 173 182 194 189 190 179 290 254 188 209 257 232 258 277 273 268 242 141 177 194 190 200 213 215 208 235 243 245 250 251 240 231 232 238 241 242 240 238 237 238 241 242 241 240 239 238 236 234 232 228 224 223 223 223 220 217 215 212 209 208 208 210 212 213 216 214 204 199 204 213 222 228 232 228 220 213
173 207 197 154 191 211 200 173 223 204 177 184 196 193 193 176 154 202 202 181 246 241 228 231 271 272 254 122 177 187 185 200 210 210 195 222 241 246 237 227 222 223 224 220 217 216 216 222 229 234 240 242 240 237 236 235 235 233 232 230 226 224 224 222 219 217 215 212 210 209 209 213 215 211 212 210 201 200 209 218 224 230 234 228 217 211
159 153 197 192 195 209 131 46 327 292 346 260 242 204 196 174 174 202 209 191 178 222 283 62 273 273 257 123 171 181 196 200 194 199 204 219 236 239 225 218 216 217 214 203 199 202 203 207 214 225 240 248 247 242 237 235 235 233 232 231 228 225 224 222 219 218 216 212 211 210 209 212 212 208 208 209 204 204 213 222 227 232 236 229 215 210
131 153 209 204 160 67 41 62 60 12 37 232 246 186 192 198 200 207 215 190 166 181 209 191 245 261 265 97 205 164 202 206 186 195 209 224 239 240 226 218 217 212 203 197 199 201 203 206 206 210 228 251 256 251 244 238 236 234 233 231 228 225 224 222 220 218 216 213 213 212 211 211 210 208 209 211 209 210 217 226 230 234 237 228 214 210
163 194 200 197 212 189 189 209 203 175 184 224 222 195 204 209 196 116 24 223 202 209 209 204 242 254 256 75 243 184 153 248 219 209 216 228 243 247 233 218 215 214 206 200 202 202 205 209 207 206 217 240 255 258 252 245 240 236 234 231 228 225 223 221 221 220 217 214 213 213 213 213 212 210 211 213 214 217 222 227 231 235 237 226 213 210
167 186 179 189 218 215 211 216 205 177 168 206 222 198 205 206 189 172 203 211 224 226 215 208 242 254 252 128 200 209 195 259 245 231 228 232 240 245 240 225 214 213 211 209 208 205 207 212 211 212 223 233 243 251 254 251 245 240 237 233 229 226 223 221 221 220 218 214 212 213 214 213 212 212 214 214 216 218 221 226 230 235 236 225 214 210
151 206 191 198 212 219 233 239 158 117 153 197 211 197 197 202 197 196 209 216 225 235 231 221 234 255 266 249 205 188 206 238 245 241 233 235 237 233 231 228 222 217 215 215 216 213 213 215 217 225 235 238 239 242 245 247 246 243 241 238 233 228 225 222 221 221 220 216 213 213 214 214 214 216 217 218 217 216 220 227 233 235 234 225 216 211
80 231 207 217 221 226 245 245 201 144 172 204 206 198 196 197 196 197 212 223 222 228 243 234 228 246 263 261 243 219 227 239 239 237 233 237 238 232 225 224 224 222 220 220 220 220 220 221 225 236 240 238 236 236 236 240 242 241 242 242 238 232 228 224 221 220 220 218 215 214 214 215 218 218 215 217 221 220 224 231 234 234 233 226 217 213
130 219 214 224 232 236 247 249 230 198 203 215 210 203 197 193 194 201 216 224 221 222 241 245 240 241 251 260 256 240 238 239 229 232 241 242 238 235 235 233 229 226 226 226 225 225 226 228 234 241 242 238 235 234 232 233 236 238 240 241 240 236 232 227 221 219 219 218 217 216 214 215 219 218 213 215 221 223 226 230 231 233 232 226 218 214
165 216 220 217 231 238 241 247 245 231 228 234 230 215 197 194 197 203 215 222 222 227 238 245 249 249 247 255 260 251 249 255 249 240 239 241 238 236 240 243 239 234 234 234 232 230 231 234 238 241 240 238 239 238 234 233 234 239 242 242 240 236 233 230 224 219 219 219 218 217 214 214 216 216 214 217 221 223 226 228 230 231 230 224 218 215
184 208 219 215 233 243 240 246 248 241 238 242 242 228 207 209 208 209 216 221 224 232 238 240 249 256 253 251 261 267 263 260 255 237 228 234 240 240 242 246 244 242 243 241 237 234 235 236 238 241 241 242 245 243 239 235 235 240 244 244 243 238 234 232 226 220 219 219 219 217 215 214 214 215 217 219 219 221 226 228 229 230 227 222 217 214
189 210 212 208 232 243 241 245 248 248 246 245 248 239 223 219 216 213 216 219 223 229 235 239 245 255 259 252 252 265 264 244 239 236 228 235 241 241 243 245 245 245 247 247 243 238 237 238 240 245 248 249 250 247 242 237 237 242 247 248 245 240 235 232 228 223 220 220 220 218 216 215 215 217 219 218 217 221 226 227 229 228 224 220 217 215
176 204 211 211 225 239 243 244 247 253 250 238 238 236 232 229 223 219 221 226 229 226 228 237 234 240 255 257 253 259 254 206 244 247 238 238 239 240 242 244 246 246 247 250 250 244 240 241 245 251 253 253 256 258 251 242 241 247 251 250 247 242 236 233 230 226 223 222 221 220 218 217 216 218 219 218 219 222 225 226 228 226 222 218 216 216
183 200 212 216 225 239 244 249 254 251 242 233 228 231 237 237 230 230 230 231 233 229 231 248 255 253 255 256 259 263 250 239 252 257 254 248 242 243 246 247 248 250 250 252 252 250 246 245 249 253 253 253 260 262 253 243 243 248 248 246 245 242 237 233 230 227 224 224 222 221 220 218 217 218 219 219 219 221 222 224 226 225 222 219 217 217
192 207 212 214 226 241 247 251 249 239 236 240 235 231 237 238 233 235 239 239 240 238 235 244 253 256 257 256 259 262 261 261 262 263 262 257 250 250 253 253 252 252 253 253 252 253 252 250 251 252 250 253 258 256 249 244 243 245 243 240 238 237 234 231 229 227 225 224 223 221 220 218 216 218 219 219 219 220 221 223 224 224 222 220 219 219
199 207 212 217 218 226 232 228 233 244 258 276 255 236 234 234 234 239 245 244 241 238 235 237 242 247 251 254 256 260 265 271 272 267 263 258 254 254 253 254 255 254 255 256 256 257 258 256 255 254 253 257 256 250 247 246 245 245 243 238 234 233 231 228 226 225 224 223 223 221 219 217 216 217 219 219 220 221 221 223 223 223 222 221 221 222
209 208 208 216 211 212 227 229 240 266 274 259 245 234 218 208 212 217 232 241 238 235 235 233 239 246 247 252 258 261 265 272 276 269 265 259 254 254 253 254 257 257 257 258 258 258 260 260 259 257 257 256 250 243 244 245 244 245 242 237 234 232 229 226 224 223 223 222 222 220 218 216 216 217 219 220 224 224 224 223 223 222 222 221 222 223
206 204 199 212 209 204 226 236 238 245 244 237 241 241 217 203 212 206 225 248 247 241 238 233 240 248 250 256 258 255 254 260 262 266 266 263 256 255 255 255 257 257 256 256 257 257 257 256 254 252 250 245 239 239 241 242 242 244 241 237 234 230 227 224 221 221 221 221 221 219 216 215 216 218 220 222 225 226 225 223 221 221 223 224 226 227
211 208 206 217 213 202 223 234 228 234 238 236 247 254 218 193 184 138 194 245 246 245 244 241 246 251 251 252 249 231 208 244 247 261 267 268 263 258 258 258 257 257 255 256 257 257 255 254 251 245 238 235 234 236 237 238 241 241 239 236 233 228 225 222 219 217 217 218 219 218 217 215 215 218 221 222 223 223 221 219 218 221 226 228 230 230
213 210 214 223 223 219 227 233 233 242 243 231 248 261 190 174 157 131 224 244 240 243 244 240 236 238 239 243 242 214 201 232 241 260 266 269 267 262 261 261 260 259 257 257 257 256 253 250 246 238 232 232 234 234 235 237 239 238 236 233 229 225 223 220 215 212 212 213 215 216 217 216 216 217 219 221 221 219 217 217 220 225 229 230 230 230
210 207 212 220 225 226 226 234 247 244 226 234 246 188 149 148 148 185 237 245 211 224 240 234 223 223 232 237 235 219 226 235 244 256 263 265 267 264 261 261 260 258 256 255 255 255 252 247 239 234 233 234 234 233 234 236 237 236 231 227 224 221 218 214 209 207 207 210 212 214 215 216 216 217 219 221 223 222 222 223 225 228 228 227 227 226
198 203 210 216 226 228 225 236 252 248 223 222 210 146 140 148 212 228 239 254 232 234 249 240 222 222 229 234 234 233 238 243 248 253 257 259 262 264 262 260 257 255 254 252 249 249 248 242 236 232 232 233 232 232 233 233 232 230 224 218 217 215 210 204 202 202 203 205 207 210 212 213 213 215 217 219 222 223 223 223 222 222 220 219 219 219
178 187 202 203 215 227 232 230 235 250 224 190 165 128 156 207 240 242 243 257 246 249 265 257 236 231 232 235 240 241 244 248 250 252 254 257 261 264 263 261 258 256 256 253 247 244 241 237 233 231 230 229 228 228 228 227 223 218 213 209 205 200 196 193 193 194 195 198 201 204 205 207 209 210 212 213 215 215 215 214 212 210 210 210 212 213
183 200 217 204 196 205 225 223 216 259 207 177 176 194 212 214 228 253 274 257 255 261 272 272 264 257 251 255 259 258 258 260 260 260 261 263 265 265 264 263 259 255 254 252 247 242 237 233 231 229 226 223 221 220 218 214 209 204 200 195 188 185 184 183 184 187 190 193 195 197 198 199 200 202 203 203 203 203 203 204 204 204 206 207 208 210
194 205 228 233 214 206 227 229 203 264 219 197 206 230 230 219 230 245 253 259 271 276 277 280 284 284 283 283 279 274 274 277 277 275 274 272 271 269 267 264 258 253 251 250 244 238 235 232 230 226 220 215 211 208 203 199 198 195 190 184 181 180 180 179 181 184 185 186 187 187 187 188 189 191 193 194 196 197 198 199 200 201 202 204 206 208
217 223 246 241 232 255 267 255 233 256 259 228 225 235 240 234 235 242 249 255 260 264 269 278 284 289 294 296 295 291 290 292 292 290 287 283 277 273 268 263 257 252 250 247 241 236 233 229 224 218 212 205 198 195 192 191 192 190 186 183 182 182 181 182 182 182 181 181 181 181 182 184 185 187 189 190 193 195 196 197 198 199 201 204 205 207
244 235 231 221 214 225 230 223 223 234 241 239 235 234 239 242 242 243 248 253 259 263 268 273 278 284 292 298 303 306 306 306 305 303 298 290 280 272 265 259 254 251 249 245 241 236 230 221 213 207 201 196 191 189 189 189 187 184 185 187 186 184 184 183 182 180 179 179 180 181 182 184 185 186 187 188 190 191 192 193 195 198 200 201 202 203
256 231 220 216 222 230 228 222 238 242 238 236 236 236 238 241 243 246 251 258 267 272 273 271 268 269 277 292 304 309 309 309 310 311 307 294 281 271 263 256 252 251 248 244 239 232 221 212 205 200 195 193 190 188 188 188 186 185 185 188 187 184 183 182 181 180 180 179 180 181 181 182 184 185 185 186 187 187 188 189 190 193 195 197 198 200
301 272 231 209 226 242 255 258 257 260 254 239 237 238 241 244 244 249 257 261 263 267 270 272 271 269 271 278 286 294 297 298 301 307 310 301 285 272 264 258 254 251 249 243 234 221 209 204 200 197 195 194 192 191 190 188 186 184 183 185 185 182 181 180 179 179 179 178 178 179 178 179 181 182 183 183 183 183 184 186 188 189 189 190 191 193
286 283 269 253 242 242 260 279 273 267 265 255 247 244 249 255 256 257 261 261 259 260 265 270 273 274 273 273 275 278 281 284 287 291 296 298 290 278 269 263 258 252 243 230 216 205 199 197 197 198 197 196 195 193 189 186 185 181 179 181 183 181 180 179 177 176 177 177 177 177 177 177 177 178 179 180 180 181 182 183 184 184 185 189 191 194
230 228 235 248 254 264 290 302 305 308 297 286 282 276 272 273 271 267 265 264 263 264 268 272 274 274 272 270 269 269 272 276 280 281 280 278 275 269 265 262 254 240 223 208 201 198 196 196 198 200 198 196 194 191 187 185 184 179 177 179 180 180 181 181 180 178 178 178 177 177 177 178 177 178 179 179 181 183 184 184 185 186 188 192 195 197